FW4789 Weather Reports


Display with metric or nautical units.
time (UTC)temp
F
wind
direction
speed
MPH
gust
MPH
rain 1hr
in
rain 24hr
in
rain mn
in
humidity
%
barometer
mb
20210412222249 83 273 3.0 6.0 0.00 0.00 0.00 34 1012.1
20210412221542 83 284 2.0 7.0 0.00 0.00 0.00 33 1012.0
20210412221152 83 236 2.0 7.0 0.00 0.00 0.00 34 1012.0
20210412220541 83 304 2.0 5.0 0.00 0.00 0.00 36 1011.9
20210412220057 83 277 2.0 8.0 0.00 0.00 0.00 31 1011.8
20210412215857 83 292 2.0 8.0 0.00 0.00 0.00 35 1011.8
20210412215515 83 282 2.0 4.0 0.00 0.00 0.00 32 1011.7
20210412214544 83 302 2.0 6.0 0.00 0.00 0.00 30 1011.8
20210412214053 83 0 3.0 6.0 0.00 0.00 0.00 32 1011.8
20210412213554 84 301 2.0 6.0 0.00 0.00 0.00 33 1011.8
20210412213042 84 302 2.0 7.0 0.00 0.00 0.00 31 1011.9
20210412212849 84 298 3.0 9.0 0.00 0.00 0.00 34 1012.0
20210412212313 83 331 4.0 9.0 0.00 0.00 0.00 32 1012.0
20210412211544 83 231 5.0 12.0 0.00 0.00 0.00 32 1012.0
20210412211040 83 263 4.0 12.0 0.00 0.00 0.00 30 1012.1
20210412210544 83 304 2.0 7.0 0.00 0.00 0.00 30 1012.0
20210412210140 83 35 2.0 6.0 0.00 0.00 0.00 32 1012.0
20210412205955 84 231 3.0 11.0 0.00 0.00 0.00 33 1012.0
20210412205700 84 229 4.0 11.0 0.00 0.00 0.00 30 1012.1
20210412204557 84 304 3.0 8.0 0.00 0.00 0.00 32 1012.1
20210412204036 84 245 2.0 9.0 0.00 0.00 0.00 31 1012.0
20210412203535 84 155 3.0 9.0 0.00 0.00 0.00 31 1012.1
20210412203122 83 350 3.0 8.0 0.00 0.00 0.00 32 1012.1
20210412202924 83 314 3.0 12.0 0.00 0.00 0.00 31 1012.1
20210412202640 83 336 4.0 12.0 0.00 0.00 0.00 35 1012.2
20210412201534 84 249 3.0 9.0 0.00 0.00 0.00 33 1012.3
20210412201045 83 233 3.0 9.0 0.00 0.00 0.00 33 1012.3
20210412200536 83 319 5.0 11.0 0.00 0.00 0.00 33 1012.3
20210412200257 83 218 4.0 11.0 0.00 0.00 0.00 33 1012.4
20210412200048 83 217 3.0 8.0 0.00 0.00 0.00 40 1012.4
20210412195739 83 182 4.0 12.0 0.00 0.00 0.00 34 1012.3
20210412194550 83 268 5.0 12.0 0.00 0.00 0.00 34 1012.4
20210412194021 83 231 4.0 11.0 0.00 0.00 0.00 29 1012.5
20210412193515 83 289 5.0 11.0 0.00 0.00 0.00 33 1012.5
20210412192957 83 265 5.0 14.0 0.00 0.00 0.00 33 1012.4
20210412192906 83 307 2.0 14.0 0.00 0.00 0.00 36 1012.5
20210412192343 83 0 0.0 0.0 0.00 0.00 0.00 40 1012.6
20210412191449 83 273 0.0 1.0 0.00 0.00 0.00 35 1012.5
20210412190933 83 324 0.0 2.0 0.00 0.00 0.00 34 1012.6
20210412190453 83 281 2.0 9.0 0.00 0.00 0.00 36 1012.6
20210412190240 82 315 3.0 9.0 0.00 0.00 0.00 39 1012.7
20210412185941 82 248 3.0 10.0 0.00 0.00 0.00 38 1012.6
20210412185037 82 22 4.0 11.0 0.00 0.00 0.00 36 1012.7
20210412184359 82 236 3.0 11.0 0.00 0.00 0.00 38 1012.6
20210412183859 82 61 4.0 11.0 0.00 0.00 0.00 38 1012.6
20210412183350 82 278 4.0 11.0 0.00 0.00 0.00 38 1012.6
20210412183129 82 287 3.0 10.0 0.00 0.00 0.00 43 1012.7
20210412182922 81 278 4.0 10.0 0.00 0.00 0.00 38 1012.7
20210412182104 81 250 4.0 10.0 0.00 0.00 0.00 40 1012.7
20210412181326 81 227 3.0 9.0 0.00 0.00 0.00 43 1012.7
20210412180834 81 271 4.0 9.0 0.00 0.00 0.00 38 1012.7
20210412180314 80 309 3.0 8.0 0.00 0.00 0.00 40 1012.7
20210412180223 80 301 3.0 7.0 0.00 0.00 0.00 40 1012.7
20210412175943 80 355 3.0 9.0 0.00 0.00 0.00 42 1012.8
20210412175024 80 251 3.0 9.0 0.00 0.00 0.00 42 1012.9
20210412174250 79 164 3.0 10.0 0.00 0.00 0.00 41 1012.8
20210412173742 80 311 4.0 10.0 0.00 0.00 0.00 39 1012.9
20210412173243 80 319 4.0 12.0 0.00 0.00 0.00 40 1013.0
20210412173037 79 271 5.0 12.0 0.00 0.00 0.00 38 1012.9
20210412172849 79 323 4.0 11.0 0.00 0.00 0.00 40 1013.0
20210412171813 79 260 4.0 10.0 0.00 0.00 0.00 38 1013.0
20210412171241 79 27 3.0 10.0 0.00 0.00 0.00 39 1013.0
20210412170924 79 298 4.0 11.0 0.00 0.00 0.00 41 1013.0
20210412170629 78 297 4.0 11.0 0.00 0.00 0.00 42 1013.0
20210412170110 78 234 3.0 9.0 0.00 0.00 0.00 40 1013.0
20210412165804 78 279 4.0 10.0 0.00 0.00 0.00 44 1013.0
20210412164754 78 5 5.0 11.0 0.00 0.00 0.00 42 1013.0
20210412164237 77 257 4.0 11.0 0.00 0.00 0.00 42 1012.9
20210412163738 77 261 5.0 13.0 0.00 0.00 0.00 42 1013.0
20210412163237 77 261 7.0 13.0 0.00 0.00 0.00 41 1012.9
20210412162944 77 276 6.0 13.0 0.00 0.00 0.00 42 1012.9
20210412162751 77 315 4.0 13.0 0.00 0.00 0.00 44 1013.0
20210412161746 76 257 4.0 12.0 0.00 0.00 0.00 45 1013.0
20210412161234 76 325 4.0 12.0 0.00 0.00 0.00 45 1013.0
20210412160741 76 236 3.0 10.0 0.00 0.00 0.00 47 1013.0
20210412160247 76 333 4.0 11.0 0.00 0.00 0.00 45 1013.0
20210412160043 75 281 5.0 11.0 0.00 0.00 0.00 46 1013.0
20210412155830 75 355 6.0 11.0 0.00 0.00 0.00 46 1013.1
20210412154952 74 331 6.0 14.0 0.00 0.00 0.00 46 1013.1
20210412154241 74 268 5.0 14.0 0.00 0.00 0.00 46 1013.1
20210412153725 73 241 5.0 12.0 0.00 0.00 0.00 46 1013.1
20210412153249 74 230 5.0 12.0 0.00 0.00 0.00 46 1013.1
20210412152957 73 261 5.0 13.0 0.00 0.00 0.00 48 1013.0
20210412152743 73 256 5.0 13.0 0.00 0.00 0.00 47 1012.8
20210412151716 73 234 5.0 14.0 0.00 0.00 0.00 45 1012.8
20210412151210 73 320 5.0 14.0 0.00 0.00 0.00 52 1012.8
20210412150650 72 208 6.0 14.0 0.00 0.00 0.00 50 1013.0
20210412150253 72 316 5.0 13.0 0.00 0.00 0.00 48 1012.8
20210412150024 72 278 3.0 9.0 0.00 0.00 0.00 49 1012.7
20210412145826 72 290 3.0 8.0 0.00 0.00 0.00 49 1012.6
20210412144629 71 256 4.0 9.0 0.00 0.00 0.00 51 1012.6
20210412144120 71 310 5.0 9.0 0.00 0.00 0.00 52 1012.5
20210412143617 70 340 5.0 10.0 0.00 0.00 0.00 52 1012.5
20210412143240 70 265 4.0 10.0 0.00 0.00 0.00 53 1012.6
20210412142934 69 296 3.0 11.0 0.00 0.00 0.00 54 1012.6
20210412142454 68 307 2.0 11.0 0.00 0.00 0.00 58 1012.5
20210412141546 68 330 3.0 9.0 0.00 0.00 0.00 58 1012.6
20210412141043 67 260 3.0 9.0 0.00 0.00 0.00 67 1012.6
20210412140539 66 312 3.0 9.0 0.00 0.00 0.00 62 1012.5
20210412140147 65 284 3.0 8.0 0.00 0.00 0.00 65 1012.4
20210412135959 65 277 3.0 8.0 0.00 0.00 0.00 69 1012.4
20210412135457 63 292 2.0 4.0 0.00 0.00 0.00 74 1012.3
20210412134520 62 228 2.0 4.0 0.00 0.00 0.00 75 1012.4
20210412134020 61 262 2.0 4.0 0.00 0.00 0.00 78 1012.4
20210412133515 60 240 1.0 5.0 0.00 0.00 0.00 80 1012.3
20210412132954 58 288 0.0 5.0 0.00 0.00 0.00 88 1012.2
20210412132741 55 355 0.0 0.0 0.00 0.00 0.00 89 1012.2
20210412132052 54 355 0.0 0.0 0.00 0.00 0.00 89 1012.2
20210412131433 53 355 0.0 0.0 0.00 0.00 0.00 91 1012.1
20210412130928 52 355 0.0 0.0 0.00 0.00 0.00 92 1012.0
20210412130421 51 355 0.0 0.0 0.00 0.00 0.00 93 1012.0
20210412125620 48 355 0.0 0.0 0.00 0.00 0.00 95 1012.2
20210412124411 47 355 0.0 0.0 0.00 0.00 0.00 95 1012.2
20210412123911 47 355 0.0 0.0 0.00 0.00 0.00 95 1012.0
20210412123422 46 355 0.0 0.0 0.00 0.00 0.00 95 1011.9
20210412122922 45 355 0.0 0.0 0.00 0.00 0.00 95 1011.7
20210412122315 44 355 0.0 0.0 0.00 0.00 0.00 95 1011.6
20210412121419 44 355 0.0 0.0 0.00 0.00 0.00 95 1011.5
20210412120911 43 355 0.0 0.0 0.00 0.00 0.00 95 1011.4
20210412120423 43 355 0.0 0.0 0.00 0.00 0.00 95 1011.5
20210412120027 42 355 0.0 0.0 0.00 0.00 0.00 95 1011.4
20210412115458 43 355 0.0 0.0 0.00 0.00 0.00 95 1011.3
20210412114359 43 355 0.0 0.0 0.00 0.00 0.00 95 1011.2
20210412113910 43 355 0.0 0.0 0.00 0.00 0.00 95 1011.2
20210412113355 43 355 0.0 0.0 0.00 0.00 0.00 95 1011.0
20210412112911 43 355 0.0 0.0 0.00 0.00 0.00 95 1011.0
20210412112720 43 355 0.0 0.0 0.00 0.00 0.00 95 1010.7
20210412112047 43 355 0.0 0.0 0.00 0.00 0.00 95 1010.7
20210412111408 43 355 0.0 0.0 0.00 0.00 0.00 95 1010.6
20210412110857 43 355 0.0 0.0 0.00 0.00 0.00 95 1010.7
20210412110356 43 355 0.0 0.0 0.00 0.00 0.00 95 1010.6
20210412110021 43 355 0.0 0.0 0.00 0.00 0.00 95 1010.6
20210412105855 43 355 0.0 0.0 0.00 0.00 0.00 95 1010.5
20210412105051 43 355 0.0 0.0 0.00 0.00 0.00 95 1010.6
20210412104356 43 355 0.0 0.0 0.00 0.00 0.00 95 1010.6
20210412103855 44 355 0.0 0.0 0.00 0.00 0.00 95 1010.5
20210412103355 44 355 0.0 0.0 0.00 0.00 0.00 95 1010.5
20210412103030 44 355 0.0 0.0 0.00 0.00 0.00 95 1010.3
20210412102853 44 355 0.0 0.0 0.00 0.00 0.00 95 1010.4
20210412102114 44 355 0.0 0.0 0.00 0.00 0.00 95 1010.4
20210412101352 44 355 0.0 0.0 0.00 0.00 0.00 95 1010.4
20210412100845 44 355 0.0 0.0 0.00 0.00 0.00 95 1010.3
20210412100352 44 355 0.0 0.0 0.00 0.00 0.00 95 1010.2
20210412100104 44 355 0.0 0.0 0.00 0.00 0.00 95 1010.1
20210412095906 44 355 0.0 0.0 0.00 0.00 0.00 95 1010.1
20210412094948 44 355 0.0 0.0 0.00 0.00 0.00 95 1010.1
20210412094338 44 355 0.0 0.0 0.00 0.00 0.00 95 1010.0
20210412093838 44 355 0.0 0.0 0.00 0.00 0.00 95 1010.0
20210412093339 44 355 0.0 0.0 0.00 0.00 0.00 95 1010.0
20210412092842 44 355 0.0 0.0 0.00 0.00 0.00 95 1009.8
20210412092658 44 355 0.0 0.0 0.00 0.00 0.00 95 1009.9
20210412091943 44 355 0.0 0.0 0.00 0.00 0.00 95 1009.8
20210412091326 44 355 0.0 0.0 0.00 0.00 0.00 95 1009.8
20210412090832 44 355 0.0 0.0 0.00 0.00 0.00 95 1009.9
20210412090314 44 355 0.0 0.0 0.00 0.00 0.00 95 1009.8
20210412090048 44 355 0.0 0.0 0.00 0.00 0.00 95 1009.8
20210412085830 44 355 0.0 0.0 0.00 0.00 0.00 95 1009.7
20210412084804 45 355 0.0 0.0 0.00 0.00 0.00 94 1009.7
20210412084249 45 355 0.0 0.0 0.00 0.00 0.00 94 1009.7
20210412083743 45 355 0.0 0.0 0.00 0.00 0.00 94 1009.6
20210412083235 45 355 0.0 0.0 0.00 0.00 0.00 94 1009.6
20210412082934 45 355 0.0 0.0 0.00 0.00 0.00 94 1009.5
20210412082737 45 355 0.0 0.0 0.00 0.00 0.00 94 1009.5
20210412081747 45 355 0.0 0.0 0.00 0.00 0.00 94 1009.3
20210412081212 45 355 0.0 0.0 0.00 0.00 0.00 94 1009.3
20210412080704 45 355 0.0 0.0 0.00 0.00 0.00 94 1009.3
20210412080200 45 355 0.0 0.0 0.00 0.00 0.00 94 1009.3
20210412075847 45 355 0.0 0.0 0.00 0.00 0.00 94 1009.2
20210412075435 45 355 0.0 0.0 0.00 0.00 0.00 94 1009.1
20210412074642 46 355 0.0 0.0 0.00 0.00 0.00 94 1009.2
20210412074138 46 355 0.0 0.0 0.00 0.00 0.00 94 1009.1
20210412073630 46 355 0.0 0.0 0.00 0.00 0.00 94 1009.1
20210412073146 46 344 0.0 0.0 0.00 0.00 0.00 94 1009.0
20210412072933 46 319 0.0 0.0 0.00 0.00 0.00 94 1008.9
20210412072727 46 319 0.0 0.0 0.00 0.00 0.00 94 1009.0
20210412071643 46 319 0.0 0.0 0.00 0.00 0.00 94 1008.8
20210412071128 46 319 0.0 0.0 0.00 0.00 0.00 94 1008.9
20210412070625 46 319 0.0 0.0 0.00 0.00 0.00 94 1008.9
20210412070134 46 319 0.0 0.0 0.00 0.00 0.00 94 1008.7
20210412065819 46 304 0.0 0.0 0.00 0.00 0.00 94 1008.6
20210412065452 46 304 0.0 0.0 0.00 0.00 0.00 93 1008.6
20210412064624 47 304 0.0 0.0 0.00 0.00 0.00 94 1008.7
20210412064133 47 304 0.0 0.0 0.00 0.00 0.00 93 1008.8
20210412063619 47 304 0.0 0.0 0.00 0.00 0.00 93 1008.8
20210412063120 47 304 0.0 0.0 0.00 0.00 0.00 93 1008.6
20210412062740 47 304 0.0 0.0 0.00 0.00 0.00 93 1008.3
20210412061620 47 304 0.0 0.0 0.00 0.00 0.00 93 1008.3
20210412061113 47 304 0.0 0.0 0.00 0.00 0.00 93 1008.2
20210412060739 47 304 0.0 0.0 0.00 0.00 0.00 93 1008.1
20210412060125 47 303 0.0 0.0 0.00 0.00 0.00 93 1008.2
20210412055847 47 303 0.0 0.0 0.00 0.00 0.00 92 1008.1
20210412055401 47 303 0.0 0.0 0.00 0.00 0.00 92 1008.1
20210412054622 48 303 0.0 0.0 0.00 0.00 0.00 92 1008.3
20210412054110 47 303 0.0 0.0 0.00 0.00 0.00 92 1008.3
20210412053627 48 303 0.0 0.0 0.00 0.00 0.00 92 1008.3
20210412053121 48 303 0.0 0.0 0.00 0.00 0.00 92 1008.3
20210412052740 48 303 0.0 0.0 0.00 0.00 0.00 91 1008.2
20210412051617 49 303 0.0 0.0 0.00 0.00 0.00 91 1008.3
20210412051114 49 303 0.0 0.0 0.00 0.00 0.00 91 1008.1
20210412050618 49 303 0.0 0.0 0.00 0.00 0.00 91 1008.2
20210412050556 49 303 0.0 0.0 0.00 0.00 0.00 91 1008.3
20210412050248 49 303 0.0 0.0 0.00 0.00 0.00 90 1008.3
20210412045823 49 303 0.0 0.0 0.00 0.00 0.00 90 1008.2
20210412044620 50 303 0.0 0.0 0.00 0.00 0.00 89 1008.1
20210412044107 50 279 0.0 0.0 0.00 0.00 0.00 88 1008.1
20210412043619 50 279 0.0 0.0 0.00 0.00 0.00 86 1007.9
20210412043329 50 279 0.0 0.0 0.00 0.00 0.00 86 1007.9
20210412043033 50 279 0.0 0.0 0.00 0.00 0.00 86 1007.9
20210412042523 50 279 0.0 0.0 0.00 0.00 0.00 88 1008.1
20210412041616 51 279 0.0 0.0 0.00 0.00 0.00 89 1007.9
20210412041106 51 279 0.0 0.0 0.00 0.00 0.00 89 1007.9
20210412040615 51 279 0.0 0.0 0.00 0.00 0.00 89 1007.8
20210412040109 51 279 0.0 0.0 0.00 0.00 0.00 88 1007.9
20210412035850 51 279 0.0 0.0 0.00 0.00 0.00 86 1007.8
20210412035342 51 279 0.0 0.0 0.00 0.00 0.00 86 1007.7
20210412034610 51 279 0.0 0.0 0.00 0.00 0.00 88 1007.7
20210412034110 51 279 0.0 0.0 0.00 0.00 0.00 86 1007.7
20210412033603 52 279 0.0 0.0 0.00 0.00 0.00 87 1007.5
20210412033119 52 279 0.0 0.0 0.00 0.00 0.00 86 1007.7
20210412032843 52 279 0.0 0.0 0.00 0.00 0.00 84 1007.5
20210412032238 53 279 0.0 0.0 0.00 0.00 0.00 83 1007.4
20210412031548 53 279 0.0 0.0 0.00 0.00 0.00 79 1007.4
20210412031040 53 279 0.0 0.0 0.00 0.00 0.00 79 1007.5
20210412030529 53 279 0.0 0.0 0.00 0.00 0.00 80 1007.5
20210412030024 53 279 0.0 0.0 0.00 0.00 0.00 79 1007.6
20210412025837 54 279 0.0 0.0 0.00 0.00 0.00 78 1007.8
20210412025243 54 279 0.0 0.0 0.00 0.00 0.00 79 1007.6
20210412024557 54 279 0.0 0.0 0.00 0.00 0.00 80 1007.6
20210412024024 54 279 0.0 0.0 0.00 0.00 0.00 75 1007.4
20210412023454 55 279 0.0 0.0 0.00 0.00 0.00 74 1007.4
20210412023041 55 279 0.0 0.0 0.00 0.00 0.00 71 1007.5
20210412022852 56 279 0.0 0.0 0.00 0.00 0.00 73 1007.4
20210412022139 56 279 0.0 0.0 0.00 0.00 0.00 73 1007.2
20210412021430 56 279 0.0 0.0 0.00 0.00 0.00 72 1007.2
20210412020927 57 279 0.0 0.0 0.00 0.00 0.00 72 1007.1
20210412020416 57 279 0.0 1.0 0.00 0.00 0.00 71 1007.2
20210412015911 58 279 0.0 1.0 0.00 0.00 0.00 70 1007.0
20210412015658 58 279 0.0 2.0 0.00 0.00 0.00 67 1006.9
20210412014935 59 279 1.0 3.0 0.00 0.00 0.00 67 1006.9
20210412014357 60 279 0.0 3.0 0.00 0.00 0.00 60 1007.0
20210412013851 60 285 0.0 1.0 0.00 0.00 0.00 62 1006.8
20210412013415 60 279 0.0 2.0 0.00 0.00 0.00 61 1006.8
20210412013140 60 275 0.0 2.0 0.00 0.00 0.00 63 1006.8
20210412012839 60 255 1.0 4.0 0.00 0.00 0.00 62 1006.7
20210412011903 61 259 1.0 4.0 0.00 0.00 0.00 62 1006.7
20210412011319 61 271 1.0 2.0 0.00 0.00 0.00 61 1006.6
20210412010827 61 273 0.0 2.0 0.00 0.00 0.00 59 1006.6
20210412010306 62 281 0.0 0.0 0.00 0.00 0.00 55 1006.4
20210412005339 64 281 1.0 3.0 0.00 0.00 0.00 52 1006.2
20210412004240 64 251 1.0 3.0 0.00 0.00 0.00 51 1006.1
20210412003738 65 271 0.0 3.0 0.00 0.00 0.00 51 1006.2
20210412003023 67 283 2.0 6.0 0.00 0.00 0.00 48 1006.0
20210412001710 67 305 2.0 6.0 0.00 0.00 0.00 46 1005.9
20210412001225 67 334 2.0 5.0 0.00 0.00 0.00 47 1005.9
20210412000709 68 260 2.0 5.0 0.00 0.00 0.00 46 1005.8
20210412000218 68 273 1.0 5.0 0.00 0.00 0.00 46 1005.8
20210411235924 69 254 2.0 6.0 0.00 0.00 0.00 43 1005.7
20210411235706 69 227 3.0 8.0 0.00 0.00 0.00 43 1005.8
20210411234706 69 287 3.0 8.0 0.00 0.00 0.00 41 1005.6
20210411234158 70 263 4.0 12.0 0.00 0.00 0.00 43 1005.6
20210411233659 70 262 5.0 12.0 0.00 0.00 0.00 40 1005.5
20210411233245 71 284 6.0 10.0 0.00 0.00 0.00 40 1005.5
20210411233040 71 303 6.0 16.0 0.00 0.00 0.00 39 1005.5
20210411232840 71 264 6.0 16.0 0.00 0.00 0.00 39 1005.5
20210411231704 71 293 6.0 14.0 0.00 0.00 0.00 39 1005.4
20210411231228 72 286 6.0 16.0 0.00 0.00 0.00 40 1005.3
20210411230703 72 311 6.0 16.0 0.00 0.00 0.00 40 1005.2
20210411230159 72 299 6.0 12.0 0.00 0.00 0.00 40 1005.2
20210411225919 72 288 5.0 12.0 0.00 0.00 0.00 40 1005.1
20210411225534 73 269 4.0 9.0 0.00 0.00 0.00 39 1005.1
20210411224650 73 298 4.0 12.0 0.00 0.00 0.00 40 1005.1
20210411224151 73 300 4.0 12.0 0.00 0.00 0.00 38 1005.0
20210411223654 73 286 4.0 12.0 0.00 0.00 0.00 37 1005.1
20210411223322 73 291 5.0 12.0 0.00 0.00 0.00 37 1005.0
20210411223115 73 355 6.0 14.0 0.00 0.00 0.00 37 1005.0
20210411222856 74 283 6.0 14.0 0.00 0.00 0.00 37 1005.0